[Iaude] MPEC B73: 2024 BV1 [a=1.67,e=0.47,i=8.7,H=27.2]
    mpec at marsden.cfa.harvard.edu 
    mpec at marsden.cfa.harvard.edu
       
    Sat Jan 20 16:28:37 EST 2024
    
    
  
M.P.E.C. 2024-B73                              Issued 2024 January 20, 21:26 UT
     The Minor Planet Electronic Circulars contain information on unusual
         minor planets, routine data on comets and natural satellites,
         and occasional editorial announcements.  They are published
    on behalf of Division F of the International Astronomical Union by the
          Minor Planet Center, Smithsonian Astrophysical Observatory,
                          Cambridge, MA 02138, U.S.A.
			  
             Prepared using the Tamkin Foundation Computer Network
                              MPC at CFA.HARVARD.EDU
            URL https://www.minorplanetcenter.net/    ISSN 1523-6714
                                    2024 BV1                                    
Observations:
     K24B01V*1C2024 01 19.21472507 43 05.034+23 51 14.69         20.97GVEB073G96
     K24B01V 1C2024 01 19.22032907 43 07.540+23 49 34.07         20.49GVEB073G96
     K24B01V 1C2024 01 19.22593507 43 10.096+23 47 50.68         20.20GVEB073G96
     K24B01V 1C2024 01 19.23154107 43 12.558+23 46 07.97         20.16GVEB073G96
     K24B01V KC2024 01 19.37032007 44 11.803+23 04 25.57         20.10GVEB073I52
     K24B01V KC2024 01 19.37318207 44 13.020+23 03 34.06         20.61GVEB073I52
     K24B01V KC2024 01 19.37603907 44 14.201+23 02 43.69         20.35GVEB073I52
     K24B01V KC2024 01 19.37887807 44 15.403+23 01 52.68         20.14GVEB073I52
     K24B01V KB2024 01 19.84439707 48 03.86 +20 52 37.6          20.5 GXEB073I93
     K24B01V KB2024 01 19.85744607 48 08.83 +20 49 19.2          20.6 GXEB073I93
     K24B01V KB2024 01 19.87039007 48 13.68 +20 46 03.3          20.3 GXEB073I93
     K24B01V pC2024 01 20.86349707 54 09.11 +17 02 22.6          20.3 GVEB073L01
     K24B01V pC2024 01 20.86646107 54 09.98 +17 01 47.0          20.9 GVEB073L01
Observer details:
G96 Mt. Lemmon Survey.  Observer A. R. Gibbs.  Measurers T. Beuden, V. F.
    Carvajal, D. Fay, J. B. Fazekas, D. C. Fuls, A. R. Gibbs, A. D. Grauer, H.
    Groeller, J. K. Hogan, R. A. Kowalski, S. M. Larson, G. J. Leonard, D.
    Rankin, R. L. Seaman, F. C. Shelly, K. W. Wierzchos.  1.5-m reflector +
    10K CCD.
I52 Steward Observatory, Mt. Lemmon Station.  Observer R. A. Kowalski.
    Measurers E. C. Beshore, D. Fay, J. B. Fazekas, D. C. Fuls, A. R. Gibbs,
    A. D. Grauer, H. Groeller, J. K. Hogan, R. A. Kowalski, S. M. Larson, G.
    J. Leonard, D. Rankin, R. L. Seaman, F. C. Shelly, K. W. Wierzchos.  1.0-m
    prime focus + CCD.
I93 St Pardon de Conques.  Observer F. Losse.  0.40-m f/3.7 reflector + CMO.
L01 Visnjan Observatory, Tican.  Observer K. Korlevic.  1.0-m f/2.9 reflector
    + CCD.
Orbital elements:
2024 BV1                                                 Earth MOID = 0.0184 AU
Epoch 2023 Sept. 13.0 TT = JDT 2460200.5                MPC                     
M 320.80981              (2000.0)            P               Q                  
n   0.45780781     Peri.  123.67707     +0.45494434     -0.88047025             
a   1.6673007      Node   298.71378     +0.75838660     +0.46159199             
e   0.4728499      Incl.    8.74944     +0.46677126     +0.10818954             
P   2.15           H   27.21          G   0.15           U   8                  
Residuals in seconds of arc
240119 G96  0.2-  0.4+    240119 I52  0.2+  0.5-    240119 I93  0.2-  0.6+
240119 G96 (0.4-  1.9+)   240119 I52  0.2-  0.2+    240120 L01  0.6-  0.4+
240119 G96  0.3+  0.5+    240119 I52  0.1-  0.1-    240120 L01  0.7+  0.4-
240119 G96  0.1-  0.2-    240119 I93  0.3-  0.3+
240119 I52  0.0   0.1-    240119 I93  0.2-  0.2+
Ephemeris:
2024 BV1                 a,e,i = 1.67, 0.47, 9                   q = 0.8789
Date    TT    R. A. (2000) Decl.     Delta      r    Elong.  Phase     V
2023 12 21    20 33 42.0 +12 22 57   0.1640  0.8949    53.1   118.5    27.8
...
2024 01 05    20 56 09.2 +24 50 13   0.06595 0.9473    55.3   121.4    26.1
...
2024 01 13    23 35 48.4 +65 04 03   0.02322 0.9871    98.1    80.6    21.8
...
2024 01 19    07 40 59.3 +25 00 25   0.03728 1.0209   173.7     6.1    20.6
2024 01 20    07 48 59.1 +20 15 15   0.04300 1.0268   176.3     3.6    20.8
2024 01 21    07 54 45.3 +16 37 32   0.04900 1.0328   175.1     4.7    21.1
...
2024 01 27    08 10 58.8 +05 55 42   0.08802 1.0702   166.0    12.9    22.8
...
2024 02 04    08 18 40.6 +01 26 13   0.1444  1.1230   160.8    16.8    24.2
...
2024 02 19    08 27 24.1 -00 23 04   0.2626  1.2275   152.6    21.7    25.8
A. U. Tomatic                (C) Copyright 2024 MPC           M.P.E.C. 2024-B73
    
    
More information about the Iaude
mailing list